Preview of NWS' New Version of Forecast
This preview is not operational and should not be used for support decisions.

Regional Weather Roundup (RWR)

Issued by Glasgow, MT (GGW)

                            
021 
ASUS45 KGGW 212315
RWRGGW
HOURLY REGIONAL WEATHER ROUNDUP FOR NORTHEAST MONTANA
NATIONAL WEATHER SERVICE GLASGOW MONTANA
500 PM MDT THU JUN 21 2018

NOTE: "FAIR" INDICATES FEW OR NO CLOUDS BELOW 12,000 FEET WITH NO
SIGNIFICANT WEATHER AND/OR OBSTRUCTIONS TO VISISBILITY.

NORTHEAST MONTANA

  
CITY           SKY/WX    TMP DP  RH WIND       PRES   REMARKS
GLASGOW        MOSUNNY   85  50  29 SE12      29.86F                  
WOLF POINT     MOSUNNY   84  54  35 E6        29.88F                  
JORDAN           N/A     81  55  40 SE7       29.87F                  
SIDNEY         SUNNY     82  53  36 S10       29.91F                  
GLENDIVE       MOSUNNY   80  55  42 S12       29.91F                  

FORT PECK REPORTS

  
CITY           SKY/WX    TMP DP  RH WIND       PRES   REMARKS

SOUTHEAST MONTANA

  
CITY           SKY/WX    TMP DP  RH WIND       PRES   REMARKS
BILLINGS       PTSUNNY   79  54  41 SE5       29.88F                  
MILES CITY     SUNNY     82  57  42 SE10      29.88F                  
BAKER          SUNNY     79  56  45 S13       29.96F                  
LIVINGSTON     CLOUDY    59  51  75 W21G37    30.06R                  

CENTRAL MONTANA

  
CITY           SKY/WX    TMP DP  RH WIND       PRES   REMARKS
HAVRE          TSTM      70  59  68 SE17      29.83S                  
LEWISTOWN      TSTM      57  53  86 MISG      29.95S FOG              
GREAT FALLS    MOSUNNY   77  54  44 W16       29.89F                  
CUT BANK       CLOUDY    70  57  63 SW9       29.88F                  
HELENA         CLOUDY    64  55  72 S10       29.97F                  
BUTTE          CLOUDY    62  46  55 W13       30.08F                  
BOZEMAN        CLOUDY    61  54  77 E7        30.06F                  

WESTERN MONTANA

  
CITY           SKY/WX    TMP DP  RH WIND       PRES   REMARKS
MISSOULA       RAIN      63  55  75 CALM      30.00S                  
KALISPELL      NOT AVBL                                               

NORTH DAKOTA

  
CITY           SKY/WX    TMP DP  RH WIND       PRES   REMARKS
WILLISTON      MOSUNNY   85  48  27 S8        29.92F                  
DICKINSON      MOSUNNY   78  51  38 S8        29.96F                  
MINOT          CLOUDY    81  53  37 S7        29.93F                  
BISMARCK       PTSUNNY   84  52  33 SW8       29.96F                  

SOUTHERN SASKATCHEWAN

  
CITY           SKY/WX    TMP DP  RH WIND       PRES   REMARKS
REGINA         PTSUNNY   79  50  36 S6        29.90F                  
MOOSE JAW      PTSUNNY   82  54  36 SE9       29.89F                  
ESTEVAN        PTSUNNY   81  50  34 SE5       29.93F                  
SWIFT CURRENT  MOSUNNY   82  48  30 SE16G22   29.86F